sat.trackr.live / text

‹ back to catalog

STARLINK-6238

NORAD 56428 · 2023-061BG

PAYLOAD ACTIVE UNKNOWN

§ Identity

Operator
Country
US
Launch date
2023-05-04
Launch site
AFETR
Launch vehicle
Mass (kg)
RCS (m²)

Purposes: comms

External: N2YO · Heavens-Above · Gunter

§ Orbital elements

Epoch: 2026-05-25T03:52:26.179104Z

Period
94.32 min
Inclination
43.0052°
Eccentricity
0.0001696
Mean motion
15.26742572 rev/d
Perigee alt
484.4 km
Apogee alt
486.7 km
Semi-major
6,863.7 km
B*
2.9733e-5
RAAN
107.8004°
Arg perigee
298.4007°
Mean anomaly
61.6674°
Rev number
16,865

§ Raw data

STARLINK-62381 56428U 23061BG  26145.16141411  .00000538  00000+0  29733-4 0  99972 56428  43.0052 107.8004 0001696 298.4007  61.6674 15.26742572168650

JSON: /api/v1/satellites/56428 · /tle

For live sub-satellite position, see the globe view (requires WebGL).

§ Visibility from observer

Set your observer location to see the next 7 days of passes ≥ 10°. The values pass through the URL so the page stays shareable.

No JS? Fill the form by hand. The geolocation button needs JavaScript.